User: anonymous   Login
Location: Unspecified
(0.0000°N, 0.0000°E)
Time: 04:43:49
(UTC+00:00)
Language:

SEEDS - Orbit

View from above orbital plane
View from above orbital plane
View from above satellite
View from above satellite

Ground track
Ground track

The orbit data is extracted from the following two-line orbital elements,

1 32791U 08021J   18019.10144198  .00000243  00000-0  30327-4 0  9998
2 32791  97.5463  43.3483 0014209 149.6848 210.5196 14.90447658527308
Epoch (UTC): 19 January 2018 02:26:04
Eccentricity: 0.0014209
inclination: 97.5463°
perigee height: 586 km
apogee height: 606 km
right ascension of ascending node: 43.3483°
argument of perigee: 149.6848°
revolutions per day: 14.90447658
mean anomaly at epoch: 210.5196°
orbit number at epoch: 52730

The dashed part of the orbit path shows where the satellite is in the earth's shadow,  

DLR